OK1VCF-6 Weather Reports


time (UTC)temp
C
wind
direction
speed
KPH
gust
KPH
rain 1hr
cm
rain 24hr
cm
rain mn
cm
humidity
%
barometer
mb
20260905173141 14 0 0.0 0.0 0.00 0.00 0.00 74 1021.5
20260905173051 14 0 0.0 0.0 0.00 0.00 0.00 74 1021.5
20260905161548 16 0 0.0 0.0 0.00 0.00 0.00 68 1021.0
20260905160052 16 0 0.0 0.0 0.00 0.00 0.00 68 1020.8
20260905153049 16 0 0.0 0.0 0.00 0.00 0.00 72 1020.6
20260905151544 17 0 0.0 0.0 0.00 0.00 0.00 66 1020.8
20260905143048 17 0 0.0 0.0 0.00 0.00 0.00 64 1020.5
20260905140048 16 0 0.0 0.0 0.00 0.00 0.00 70 1020.6
20260905131543 16 0 0.0 0.0 0.00 0.00 0.00 72 1020.2
20260905131539 16 0 0.0 0.0 0.00 0.00 0.00 72 1020.2
20260905130044 16 0 0.0 0.0 0.00 0.00 0.00 68 1020.4
20260905130039 16 0 0.0 0.0 0.00 0.00 0.00 68 1020.4
20260905124540 17 0 0.0 0.0 0.00 0.00 0.00 72 1020.4
20260905123502 16 0 0.0 0.0 0.00 0.00 0.00 72 1020.4
20260905123037 16 0 0.0 0.0 0.00 0.00 0.00 72 1020.4
20260905114534 16 0 0.0 0.0 0.00 0.00 0.00 72 1020.6
20260905111539 16 0 0.0 0.0 0.00 0.00 0.00 72 1020.6
20260905111534 16 0 0.0 0.0 0.00 0.00 0.00 72 1020.6
20260905104630 15 0 0.0 0.0 0.00 0.00 0.00 76 1020.6
20260905104532 15 0 0.0 0.0 0.00 0.00 0.00 76 1020.6
20260905093028 15 0 0.0 0.0 0.00 0.00 0.00 81 1020.2
20260905091527 15 0 0.0 0.0 0.00 0.00 0.00 84 1020.2
20260905090027 15 0 0.0 0.0 0.00 0.00 0.00 84 1020.2
20260905083158 15 0 0.0 0.0 0.00 0.00 0.00 88 1019.8
20260905083025 15 0 0.0 0.0 0.00 0.00 0.00 88 1019.8
20260905082137 14 0 0.0 0.0 0.00 0.00 0.00 88 1019.8
20260905081524 14 0 0.0 0.0 0.00 0.00 0.00 88 1019.8
20260905080023 14 0 0.0 0.0 0.00 0.00 0.00 90 1019.8
20260905071640 13 0 0.0 0.0 0.00 0.00 0.00 91 1019.5
20260905071521 13 0 0.0 0.0 0.00 0.00 0.00 91 1019.5
20260905070023 13 0 0.0 0.0 0.00 0.00 0.00 92 1019.6
20260905064521 13 0 0.0 0.0 0.00 0.00 0.00 92 1019.4
20260905063247 13 0 0.0 0.0 0.00 0.00 0.00 90 1019.0
20260905063022 13 0 0.0 0.0 0.00 0.00 0.00 90 1019.0
20260905061523 12 0 0.0 0.0 0.00 0.00 0.00 91 1019.0
20260905060018 12 0 0.0 0.0 0.00 0.00 0.00 90 1019.0
20260905054736 12 0 0.0 0.0 0.00 0.00 0.00 92 1018.8
20260905054517 12 0 0.0 0.0 0.00 0.00 0.00 92 1018.8
20260905051516 12 0 0.0 0.0 0.00 0.00 0.00 94 1018.4
20260905050250 12 0 0.0 0.0 0.00 0.00 0.00 94 1018.2
20260905050015 12 0 0.0 0.0 0.00 0.00 0.00 94 1018.2
20260905044514 12 0 0.0 0.0 0.00 0.00 0.00 94 1017.8
20260905043346 12 0 0.0 0.0 0.00 0.00 0.00 94 1018.0
20260905043016 12 0 0.0 0.0 0.00 0.00 0.00 94 1018.0
20260905041604 12 0 0.0 0.0 0.00 0.00 0.00 94 1017.9
20260905041516 12 0 0.0 0.0 0.00 0.00 0.00 94 1017.9
20260905035152 12 0 0.0 0.0 0.00 0.00 0.00 94 1017.9
20260905034513 12 0 0.0 0.0 0.00 0.00 0.00 94 1017.9
20260905031645 12 0 0.0 0.0 0.00 0.00 0.00 94 1017.2
20260905031515 12 0 0.0 0.0 0.00 0.00 0.00 94 1017.2
20260905021507 12 0 0.0 0.0 0.00 0.00 0.00 92 1017.2
20260905020042 12 0 0.0 0.0 0.00 0.00 0.00 92 1016.5
20260905020007 12 0 0.0 0.0 0.00 0.00 0.00 92 1016.5
20260905011507 12 0 0.0 0.0 0.00 0.00 0.00 92 1016.2
20260905003004 13 0 0.0 0.0 0.00 0.00 0.00 92 1016.6
20260905001503 13 0 0.0 0.0 0.00 0.00 0.00 93 1016.5
20260905000001 13 0 0.0 0.0 0.00 0.00 0.00 94 1016.3
20260904231606 14 0 0.0 0.0 0.00 0.00 0.00 93 1015.4
20260904231500 14 0 0.0 0.0 0.00 0.00 0.00 93 1015.4
20260904230250 14 0 0.0 0.0 0.00 0.00 0.00 92 1015.8
20260904225959 14 0 0.0 0.0 0.00 0.00 0.00 92 1015.8
20260904220123 16 0 0.0 0.0 0.00 0.00 0.00 87 1015.4
20260904215955 16 0 0.0 0.0 0.00 0.00 0.00 87 1015.4
20260904212954 17 0 0.0 0.0 0.00 0.00 0.00 84 1014.6
20260904205953 17 0 0.0 0.0 0.00 0.00 0.00 82 1013.9
20260904204746 17 0 0.0 0.0 0.00 0.00 0.00 84 1013.8
20260904204452 17 0 0.0 0.0 0.00 0.00 0.00 84 1013.8
20260904202951 17 0 0.0 0.0 0.00 0.00 0.00 84 1013.8
20260904201451 17 0 0.0 0.0 0.00 0.00 0.00 83 1014.0